Weather History for KHDC - June, 2013

Change the Weather History Date:

Friday, June 21, 2013

  Actual Average Record
Temperature  
Mean Temperature 82 °F -  
Max Temperature 95 °F - - ()
Min Temperature 69 °F - - ()
Cooling Degree Days 17    
Growing Degree Days 32 (Base 50)    
Moisture  
Dew Point 69 °F    
Average Humidity 69    
Maximum Humidity 94    
Minimum Humidity 32    
Precipitation  
Precipitation 0.23 in - - ()
Sea Level Pressure  
Sea Level Pressure 30.10 in    
Wind  
Wind Speed 2 mph (ENE)    
Max Wind Speed 12 mph    
Max Gust Speed -    
Visibility 10 miles    
Events Thunderstorm    
T = Trace of Precipitation, MM = Missing Value Source: NWS Daily Summary

Daily Weather History Graph

Daily Weather History Graph

Search for Another Location

Airport or City:

Trip Planner

Search our weather history database for the weather conditions in past years. The results will help you decide how hot, cold, wet, or windy it might be!

Date:

Astronomy

Jun. 21, 2013 Rise Set
Actual Time 5:59 AM CDT 8:07 PM CDT
Civil Twilight 5:32 AM CDT 8:34 PM CDT
Nautical Twilight 4:58 AM CDT 9:08 PM CDT
Astronomical Twilight 4:22 AM CDT 9:44 PM CDT
Moon 6:22 PM CDT (6/21) 4:09 AM CDT (6/21)
Length of Visible Light 15h 02m
Length of Day
14h 07m
Waxing Gibbous, 95% of the Moon is Illuminated
Jun 21
Waxing Gibbous
Jun 23
Full
Jun 29
Last Quarter
Jul 8
New
Jul 15
First Quarter

Hourly Weather History & Observations

Time (CDT) Temp. Heat Index Dew Point Humidity Pressure Visibility Wind Dir Wind Speed Gust Speed Precip Events Conditions
12:15 AM 73.4 °F - 69.8 °F 88% 30.10 in 7.0 mi Calm Calm - N/A   Clear
12:35 AM 73.4 °F - 69.8 °F 88% 30.10 in 10.0 mi Calm Calm - N/A   Clear
12:55 AM 73.4 °F - 69.8 °F 88% 30.09 in 10.0 mi Calm Calm - 0.01 in   Clear
1:15 AM 71.6 °F - 68.0 °F 88% 30.09 in 7.0 mi Calm Calm - N/A   Clear
1:35 AM 71.6 °F - 68.0 °F 88% 30.09 in 7.0 mi North 3.5 mph - N/A   Clear
1:55 AM 71.6 °F - 68.0 °F 88% 30.08 in 7.0 mi Calm Calm - N/A   Clear
2:15 AM 71.6 °F - 68.0 °F 88% 30.08 in 10.0 mi Calm Calm - N/A   Clear
2:35 AM 71.6 °F - 68.0 °F 88% 30.08 in 7.0 mi Calm Calm - N/A   Clear
2:55 AM 71.6 °F - 68.0 °F 88% 30.08 in 7.0 mi Calm Calm - N/A   Clear
3:15 AM 71.6 °F - 68.0 °F 88% 30.08 in 10.0 mi Calm Calm - N/A   Clear
3:35 AM 69.8 °F - 68.0 °F 94% 30.08 in 7.0 mi Calm Calm - N/A   Clear
3:55 AM 69.8 °F - 68.0 °F 94% 30.08 in 7.0 mi Calm Calm - N/A   Clear
4:15 AM 69.8 °F - 68.0 °F 94% 30.08 in 10.0 mi Calm Calm - N/A   Clear
4:35 AM 69.8 °F - 68.0 °F 94% 30.08 in 10.0 mi Calm Calm - 0.01 in   Clear
4:55 AM 69.8 °F - 68.0 °F 94% 30.09 in 10.0 mi Calm Calm - 0.01 in   Clear
5:15 AM 69.8 °F - 66.2 °F 88% 30.09 in 7.0 mi Calm Calm - N/A   Clear
5:35 AM 69.8 °F - 68.0 °F 94% 30.10 in 10.0 mi Calm Calm - N/A   Clear
5:55 AM 69.8 °F - 68.0 °F 94% 30.10 in 10.0 mi Calm Calm - N/A   Clear
6:15 AM 69.8 °F - 68.0 °F 94% 30.10 in 10.0 mi Calm Calm - N/A   Clear
6:35 AM 71.6 °F - 68.0 °F 88% 30.10 in 7.0 mi Calm Calm - N/A   Clear
6:55 AM 71.6 °F - 68.0 °F 88% 30.10 in 10.0 mi Calm Calm - N/A   Clear
7:15 AM 73.4 °F - 69.8 °F 88% 30.11 in 10.0 mi Calm Calm - 0.01 in   Clear
7:35 AM 77.0 °F - 69.8 °F 78% 30.11 in 10.0 mi NNE 3.5 mph - 0.01 in   Clear
7:55 AM 78.8 °F - 69.8 °F 74% 30.11 in 10.0 mi Calm Calm - 0.01 in   Clear
8:15 AM 78.8 °F - 69.8 °F 74% 30.12 in 10.0 mi Calm Calm - N/A   Clear
8:35 AM 80.6 °F 83.9 °F 69.8 °F 70% 30.12 in 10.0 mi Calm Calm - 0.01 in   Clear
8:55 AM 82.4 °F 86.3 °F 69.8 °F 66% 30.12 in 10.0 mi NNE 4.6 mph - 0.01 in   Clear
9:15 AM 84.2 °F 88.4 °F 69.8 °F 62% 30.13 in 10.0 mi ENE 4.6 mph - 0.01 in   Clear
9:35 AM 84.2 °F 88.4 °F 69.8 °F 62% 30.13 in 10.0 mi NE 3.5 mph - 0.02 in   Clear
9:55 AM 86.0 °F 91.8 °F 71.6 °F 62% 30.13 in 10.0 mi East 3.5 mph - 0.03 in   Clear
10:15 AM 86.0 °F 90.4 °F 69.8 °F 58% 30.13 in 10.0 mi NNE 3.5 mph - 0.01 in   Clear
10:35 AM 87.8 °F 92.6 °F 69.8 °F 55% 30.14 in 10.0 mi Calm Calm - 0.03 in   Clear
10:55 AM 89.6 °F 94.7 °F 69.8 °F 52% 30.14 in 10.0 mi Calm Calm - 0.04 in   Clear
11:15 AM 89.6 °F 93.4 °F 68.0 °F 49% 30.13 in 10.0 mi ENE 4.6 mph - 0.01 in   Scattered Clouds
11:35 AM 89.6 °F 93.4 °F 68.0 °F 49% 30.14 in 10.0 mi ENE 8.1 mph - 0.02 in   Clear
11:55 AM 91.4 °F 95.4 °F 68.0 °F 46% 30.14 in 10.0 mi East 5.8 mph - 0.03 in   Scattered Clouds
12:15 PM 91.4 °F 95.4 °F 68.0 °F 46% 30.14 in 10.0 mi NNE 3.5 mph - 0.02 in   Scattered Clouds
12:35 PM 91.4 °F 94.0 °F 66.2 °F 43% 30.14 in 10.0 mi NE 5.8 mph - 0.02 in   Scattered Clouds
12:55 PM 89.6 °F 93.4 °F 68.0 °F 49% 30.13 in 10.0 mi ENE 8.1 mph - 0.03 in   Scattered Clouds
1:15 PM 91.4 °F 94.0 °F 66.2 °F 43% 30.13 in 10.0 mi Calm Calm - 0.01 in   Scattered Clouds
1:35 PM 93.2 °F 96.2 °F 66.2 °F 41% 30.13 in 10.0 mi NNW 4.6 mph - 0.02 in   Scattered Clouds
1:55 PM 91.4 °F 94.0 °F 66.2 °F 43% 30.12 in 10.0 mi Calm Calm - 0.02 in   Scattered Clouds
2:15 PM 93.2 °F 94.9 °F 64.4 °F 38% 30.12 in 10.0 mi ENE 5.8 mph - 0.01 in   Clear
2:35 PM 93.2 °F 94.9 °F 64.4 °F 38% 30.10 in 10.0 mi North 4.6 mph - 0.01 in   Clear
2:55 PM 93.2 °F 94.9 °F 64.4 °F 38% 30.10 in 10.0 mi Calm Calm - 0.01 in   Scattered Clouds
3:15 PM 93.2 °F 92.6 °F 59.0 °F 32% 30.09 in 10.0 mi East 3.5 mph - 0.01 in   Scattered Clouds
3:35 PM 93.2 °F 94.1 °F 62.6 °F 36% 30.08 in 10.0 mi Calm Calm - 0.01 in   Clear
3:55 PM 95.0 °F 96.0 °F 62.6 °F 34% 30.08 in 10.0 mi ENE 3.5 mph - 0.01 in   Clear
4:15 PM 95.0 °F 96.0 °F 62.6 °F 34% 30.08 in 10.0 mi NNE 3.5 mph - 0.01 in   Scattered Clouds
4:35 PM 93.2 °F 98.8 °F 69.8 °F 46% 30.07 in 10.0 mi SE 9.2 mph - 0.01 in Thunderstorm Scattered Clouds
4:55 PM 87.8 °F 92.6 °F 69.8 °F 55% 30.08 in 10.0 mi SE 9.2 mph - 0.01 in   Mostly Cloudy
5:15 PM 89.6 °F 94.7 °F 69.8 °F 52% 30.08 in 10.0 mi ESE 10.4 mph - N/A   Mostly Cloudy
5:35 PM 86.0 °F 89.4 °F 68.0 °F 55% 30.08 in 10.0 mi SE 10.4 mph - N/A   Overcast
5:55 PM 84.2 °F 88.4 °F 69.8 °F 62% 30.08 in 10.0 mi SE 11.5 mph - N/A   Scattered Clouds
6:15 PM 84.2 °F 88.4 °F 69.8 °F 62% 30.08 in 10.0 mi East 6.9 mph - N/A   Scattered Clouds
6:35 PM 84.2 °F 87.3 °F 68.0 °F 58% 30.07 in 10.0 mi ESE 3.5 mph - N/A   Scattered Clouds
6:55 PM 82.4 °F 87.2 °F 71.6 °F 70% 30.08 in 10.0 mi North 4.6 mph - N/A   Clear
7:15 PM 82.4 °F 87.2 °F 71.6 °F 70% 30.08 in 10.0 mi Calm Calm - 0.01 in   Clear
7:35 PM 82.4 °F 86.3 °F 69.8 °F 66% 30.08 in 10.0 mi ESE 5.8 mph - 0.01 in   Clear
7:55 PM 80.6 °F 83.9 °F 69.8 °F 70% 30.08 in 10.0 mi East 3.5 mph - 0.01 in   Clear
8:15 PM 78.8 °F - 69.8 °F 74% 30.08 in 10.0 mi Calm Calm - N/A   Clear
8:35 PM 78.8 °F - 69.8 °F 74% 30.08 in 10.0 mi Calm Calm - N/A   Clear
8:55 PM 77.0 °F - 71.6 °F 83% 30.08 in 10.0 mi Calm Calm - N/A   Clear
9:15 PM 77.0 °F - 71.6 °F 83% 30.08 in 10.0 mi Calm Calm - N/A   Clear
9:35 PM 77.0 °F - 71.6 °F 83% 30.09 in 10.0 mi Calm Calm - N/A   Clear
9:55 PM 77.0 °F - 71.6 °F 83% 30.10 in 10.0 mi Calm Calm - N/A   Clear
10:15 PM 77.0 °F - 71.6 °F 83% 30.09 in 10.0 mi East 3.5 mph - N/A   Clear
10:35 PM 77.0 °F - 71.6 °F 83% 30.10 in 10.0 mi Calm Calm - N/A   Clear
10:55 PM 77.0 °F - 69.8 °F 78% 30.10 in 10.0 mi Calm Calm - N/A   Clear
11:15 PM 77.0 °F - 69.8 °F 78% 30.10 in 10.0 mi East 6.9 mph - N/A   Clear
11:35 PM 77.0 °F - 69.8 °F 78% 30.10 in 10.0 mi East 3.5 mph - N/A   Clear
11:55 PM 75.2 °F - 69.8 °F 83% 30.09 in 10.0 mi Calm Calm - N/A   Clear